| time (UTC) | temp F | wind direction | speed MPH | gust MPH | rain 1hr in | rain 24hr in | rain mn in | humidity % | barometer mb |
| 20260502164230 | 62 | 179 | 1.0 | 5.0 | 0.00 | 0.00 | 0.00 | 22 | 1021.4 |
| 20260502163727 | 62 | 240 | 1.0 | 4.0 | 0.00 | 0.00 | 0.00 | 22 | 1021.4 |
| 20260502163224 | 62 | 226 | 2.0 | 4.0 | 0.00 | 0.00 | 0.00 | 21 | 1021.5 |
| 20260502162743 | 62 | 239 | 1.0 | 4.0 | 0.00 | 0.00 | 0.00 | 22 | 1021.6 |
| 20260502162219 | 61 | 79 | 1.0 | 4.0 | 0.00 | 0.00 | 0.00 | 22 | 1021.4 |
| 20260502161717 | 61 | 64 | 2.0 | 4.0 | 0.00 | 0.00 | 0.00 | 22 | 1021.3 |
| 20260502161215 | 62 | 77 | 1.0 | 4.0 | 0.00 | 0.00 | 0.00 | 23 | 1021.3 |
| 20260502160713 | 61 | 53 | 1.0 | 4.0 | 0.00 | 0.00 | 0.00 | 22 | 1021.3 |
| 20260502160210 | 61 | 65 | 1.0 | 3.0 | 0.00 | 0.00 | 0.00 | 22 | 1021.3 |
| 20260502152229 | 60 | 53 | 1.0 | 4.0 | 0.00 | 0.00 | 0.00 | 25 | 1021.1 |
| 20260502151727 | 59 | 57 | 0.0 | 2.0 | 0.00 | 0.00 | 0.00 | 26 | 1021.1 |
| 20260502151225 | 58 | 53 | 1.0 | 1.0 | 0.00 | 0.00 | 0.00 | 27 | 1021.2 |
| 20260502150722 | 58 | 48 | 0.0 | 1.0 | 0.00 | 0.00 | 0.00 | 28 | 1021.1 |
| 20260502150219 | 57 | 45 | 0.0 | 1.0 | 0.00 | 0.00 | 0.00 | 28 | 1021.1 |
| 20260502130721 | 43 | 258 | 0.0 | 1.0 | 0.00 | 0.00 | 0.00 | 41 | 1020.4 |
| 20260502130219 | 42 | 258 | 0.0 | 1.0 | 0.00 | 0.00 | 0.00 | 41 | 1020.4 |
| 20260502123749 | 42 | 258 | 0.0 | 1.0 | 0.00 | 0.00 | 0.00 | 41 | 1020.2 |
| 20260502123226 | 42 | 258 | 0.0 | 1.0 | 0.00 | 0.00 | 0.00 | 41 | 1020.2 |
| 20260502122724 | 42 | 258 | 0.0 | 1.0 | 0.00 | 0.00 | 0.00 | 41 | 1020.2 |
| 20260502122227 | 43 | 258 | 0.0 | 1.0 | 0.00 | 0.00 | 0.00 | 41 | 1020.2 |
| 20260502121725 | 43 | 257 | 0.0 | 1.0 | 0.00 | 0.00 | 0.00 | 41 | 1020.1 |
| 20260502121223 | 43 | 248 | 0.0 | 1.0 | 0.00 | 0.00 | 0.00 | 40 | 1020.2 |
| 20260502120720 | 43 | 248 | 0.0 | 0.0 | 0.00 | 0.00 | 0.00 | 40 | 1020.2 |
| 20260502120217 | 43 | 248 | 0.0 | 1.0 | 0.00 | 0.00 | 0.00 | 41 | 1020.2 |
| 20260502115715 | 42 | 248 | 0.0 | 1.0 | 0.00 | 0.00 | 0.00 | 41 | 1020.2 |
| 20260502115213 | 43 | 248 | 0.0 | 1.0 | 0.00 | 0.00 | 0.00 | 41 | 1020.2 |
| 20260502114732 | 42 | 248 | 0.0 | 1.0 | 0.00 | 0.00 | 0.00 | 41 | 1020.2 |
| 20260502114229 | 42 | 248 | 0.0 | 1.0 | 0.00 | 0.00 | 0.00 | 41 | 1020.2 |
| 20260502113727 | 42 | 248 | 0.0 | 1.0 | 0.00 | 0.00 | 0.00 | 42 | 1020.2 |
| 20260502113245 | 43 | 248 | 0.0 | 1.0 | 0.00 | 0.00 | 0.00 | 42 | 1020.2 |
| 20260502112741 | 42 | 248 | 0.0 | 1.0 | 0.00 | 0.00 | 0.00 | 41 | 1020.2 |
| 20260502112217 | 42 | 248 | 0.0 | 1.0 | 0.00 | 0.00 | 0.00 | 42 | 1020.2 |
| 20260502111713 | 43 | 249 | 0.0 | 1.0 | 0.00 | 0.00 | 0.00 | 42 | 1020.2 |
| 20260502111232 | 42 | 248 | 0.0 | 1.0 | 0.00 | 0.00 | 0.00 | 42 | 1020.2 |
| 20260502110729 | 43 | 248 | 0.0 | 1.0 | 0.00 | 0.00 | 0.00 | 42 | 1020.2 |
| 20260502110227 | 43 | 249 | 0.0 | 1.0 | 0.00 | 0.00 | 0.00 | 40 | 1020.2 |
| 20260502105730 | 43 | 249 | 0.0 | 1.0 | 0.00 | 0.00 | 0.00 | 41 | 1020.2 |
| 20260502105247 | 43 | 221 | 0.0 | 0.0 | 0.00 | 0.00 | 0.00 | 40 | 1020.2 |
| 20260502104724 | 43 | 221 | 0.0 | 1.0 | 0.00 | 0.00 | 0.00 | 41 | 1020.2 |
| 20260502104223 | 43 | 221 | 0.0 | 1.0 | 0.00 | 0.00 | 0.00 | 40 | 1020.2 |
| 20260502103720 | 43 | 221 | 0.0 | 1.0 | 0.00 | 0.00 | 0.00 | 40 | 1020.2 |
| 20260502103238 | 43 | 221 | 0.0 | 0.0 | 0.00 | 0.00 | 0.00 | 40 | 1020.2 |
| 20260502102714 | 43 | 221 | 0.0 | 0.0 | 0.00 | 0.00 | 0.00 | 40 | 1020.2 |
| 20260502102232 | 43 | 221 | 0.0 | 1.0 | 0.00 | 0.00 | 0.00 | 40 | 1020.2 |
| 20260502101730 | 43 | 221 | 0.0 | 1.0 | 0.00 | 0.00 | 0.00 | 40 | 1020.2 |
| 20260502101248 | 44 | 221 | 0.0 | 1.0 | 0.00 | 0.00 | 0.00 | 40 | 1020.2 |
| 20260502100725 | 44 | 217 | 0.0 | 1.0 | 0.00 | 0.00 | 0.00 | 39 | 1020.2 |
| 20260502100223 | 44 | 217 | 0.0 | 1.0 | 0.00 | 0.00 | 0.00 | 39 | 1020.2 |
| 20260502091225 | 45 | 204 | 0.0 | 0.0 | 0.00 | 0.00 | 0.00 | 38 | 1020.6 |
| 20260502090722 | 45 | 204 | 0.0 | 0.0 | 0.00 | 0.00 | 0.00 | 37 | 1020.5 |
| 20260502090231 | 45 | 204 | 0.0 | 0.0 | 0.00 | 0.00 | 0.00 | 37 | 1020.7 |
| 20260502071115 | 47 | 196 | 0.0 | 0.0 | 0.00 | 0.00 | 0.00 | 36 | 1021.0 |
| 20260502070634 | 48 | 196 | 0.0 | 0.0 | 0.00 | 0.00 | 0.00 | 36 | 1021.0 |
| 20260502070131 | 48 | 196 | 0.0 | 0.0 | 0.00 | 0.00 | 0.00 | 36 | 1021.0 |
| 20260502065630 | 49 | 196 | 0.0 | 0.0 | 0.00 | 0.00 | 0.00 | 33 | 1021.0 |
| 20260502065128 | 49 | 196 | 0.0 | 0.0 | 0.00 | 0.00 | 0.00 | 32 | 1021.0 |
| 20260502064646 | 49 | 196 | 0.0 | 0.0 | 0.00 | 0.00 | 0.00 | 32 | 1021.0 |
| 20260502064128 | 49 | 196 | 0.0 | 0.0 | 0.00 | 0.00 | 0.00 | 32 | 1021.0 |
| 20260502063625 | 49 | 196 | 0.0 | 0.0 | 0.00 | 0.00 | 0.00 | 32 | 1021.0 |
| 20260502063122 | 49 | 196 | 0.0 | 0.0 | 0.00 | 0.00 | 0.00 | 31 | 1021.0 |
| 20260502062620 | 49 | 195 | 0.0 | 0.0 | 0.00 | 0.00 | 0.00 | 31 | 1021.0 |
| 20260502062117 | 49 | 191 | 0.0 | 1.0 | 0.00 | 0.00 | 0.00 | 31 | 1021.1 |
| 20260502061615 | 49 | 191 | 0.0 | 1.0 | 0.00 | 0.00 | 0.00 | 31 | 1021.0 |
| 20260502061134 | 49 | 228 | 0.0 | 1.0 | 0.00 | 0.00 | 0.00 | 31 | 1021.0 |
| 20260502060632 | 49 | 234 | 0.0 | 1.0 | 0.00 | 0.00 | 0.00 | 31 | 1021.0 |
| 20260502060130 | 50 | 236 | 0.0 | 1.0 | 0.00 | 0.00 | 0.00 | 31 | 1021.0 |
| 20260502055650 | 50 | 236 | 0.0 | 1.0 | 0.00 | 0.00 | 0.00 | 30 | 1021.0 |
| 20260502055127 | 50 | 236 | 0.0 | 1.0 | 0.00 | 0.00 | 0.00 | 31 | 1021.0 |
| 20260502054625 | 49 | 236 | 0.0 | 1.0 | 0.00 | 0.00 | 0.00 | 31 | 1021.0 |
| 20260502054122 | 50 | 236 | 0.0 | 1.0 | 0.00 | 0.00 | 0.00 | 31 | 1021.0 |
| 20260502053640 | 49 | 236 | 0.0 | 1.0 | 0.00 | 0.00 | 0.00 | 31 | 1021.0 |
| 20260502053136 | 49 | 214 | 0.0 | 1.0 | 0.00 | 0.00 | 0.00 | 31 | 1021.0 |
| 20260502052653 | 49 | 214 | 0.0 | 1.0 | 0.00 | 0.00 | 0.00 | 31 | 1021.0 |
| 20260502052150 | 49 | 205 | 0.0 | 0.0 | 0.00 | 0.00 | 0.00 | 32 | 1021.0 |
| 20260502051648 | 49 | 205 | 0.0 | 0.0 | 0.00 | 0.00 | 0.00 | 32 | 1021.1 |
| 20260502051125 | 49 | 251 | 0.0 | 0.0 | 0.00 | 0.00 | 0.00 | 33 | 1021.1 |
| 20260502050623 | 49 | 251 | 0.0 | 1.0 | 0.00 | 0.00 | 0.00 | 33 | 1021.1 |
| 20260502050121 | 49 | 251 | 0.0 | 1.0 | 0.00 | 0.00 | 0.00 | 33 | 1021.0 |
| 20260502045622 | 49 | 251 | 0.0 | 1.0 | 0.00 | 0.00 | 0.00 | 34 | 1021.0 |
| 20260502045120 | 48 | 251 | 0.0 | 1.0 | 0.00 | 0.00 | 0.00 | 35 | 1021.0 |
| 20260502044637 | 47 | 251 | 0.0 | 1.0 | 0.00 | 0.00 | 0.00 | 41 | 1021.0 |
| 20260502044115 | 47 | 251 | 0.0 | 0.0 | 0.00 | 0.00 | 0.00 | 44 | 1021.0 |
| 20260502043633 | 47 | 251 | 0.0 | 0.0 | 0.00 | 0.00 | 0.00 | 44 | 1020.9 |
| 20260502043151 | 48 | 251 | 0.0 | 0.0 | 0.00 | 0.00 | 0.00 | 45 | 1020.9 |
| 20260502042628 | 48 | 251 | 0.0 | 0.0 | 0.00 | 0.00 | 0.00 | 45 | 1020.8 |
| 20260502042125 | 48 | 251 | 0.0 | 0.0 | 0.00 | 0.00 | 0.00 | 44 | 1020.7 |
| 20260502041622 | 48 | 251 | 0.0 | 0.0 | 0.00 | 0.00 | 0.00 | 44 | 1020.7 |
| 20260502041121 | 48 | 251 | 0.0 | 0.0 | 0.00 | 0.00 | 0.00 | 44 | 1020.7 |
| 20260502040638 | 48 | 251 | 0.0 | 0.0 | 0.00 | 0.00 | 0.00 | 44 | 1020.5 |
| 20260502040115 | 48 | 251 | 0.0 | 1.0 | 0.00 | 0.00 | 0.00 | 45 | 1020.5 |
| 20260502035654 | 48 | 251 | 0.0 | 1.0 | 0.00 | 0.00 | 0.00 | 45 | 1020.4 |
| 20260502035151 | 49 | 251 | 0.0 | 1.0 | 0.00 | 0.00 | 0.00 | 45 | 1020.3 |
| 20260502034628 | 49 | 251 | 1.0 | 1.0 | 0.00 | 0.00 | 0.00 | 45 | 1020.3 |
| 20260502034126 | 48 | 251 | 0.0 | 2.0 | 0.00 | 0.00 | 0.00 | 46 | 1020.3 |
| 20260502033623 | 48 | 252 | 0.0 | 2.0 | 0.00 | 0.00 | 0.00 | 46 | 1020.2 |
| 20260502033121 | 48 | 248 | 0.0 | 1.0 | 0.00 | 0.00 | 0.00 | 46 | 1020.2 |
| 20260502032618 | 48 | 248 | 0.0 | 1.0 | 0.00 | 0.00 | 0.00 | 46 | 1020.0 |
| 20260502032136 | 48 | 248 | 0.0 | 1.0 | 0.00 | 0.00 | 0.00 | 46 | 1019.9 |
| 20260502031633 | 49 | 248 | 0.0 | 1.0 | 0.00 | 0.00 | 0.00 | 46 | 1019.9 |
| 20260502031131 | 49 | 250 | 0.0 | 0.0 | 0.00 | 0.00 | 0.00 | 47 | 1019.8 |
| 20260502030633 | 49 | 250 | 0.0 | 0.0 | 0.00 | 0.00 | 0.00 | 47 | 1019.8 |
| 20260502030131 | 49 | 250 | 0.0 | 0.0 | 0.00 | 0.00 | 0.00 | 46 | 1019.7 |
| 20260502025630 | 50 | 250 | 0.0 | 0.0 | 0.00 | 0.00 | 0.00 | 46 | 1019.7 |
| 20260502025127 | 50 | 250 | 0.0 | 1.0 | 0.00 | 0.00 | 0.00 | 45 | 1019.6 |
| 20260502024645 | 51 | 250 | 0.0 | 1.0 | 0.00 | 0.00 | 0.00 | 44 | 1019.5 |
| 20260502024123 | 51 | 250 | 0.0 | 0.0 | 0.00 | 0.00 | 0.00 | 42 | 1019.5 |
| 20260502023621 | 52 | 250 | 0.0 | 0.0 | 0.00 | 0.00 | 0.00 | 41 | 1019.5 |
| 20260502023118 | 52 | 250 | 0.0 | 0.0 | 0.00 | 0.00 | 0.00 | 40 | 1019.5 |
| 20260502022616 | 53 | 250 | 0.0 | 0.0 | 0.00 | 0.00 | 0.00 | 39 | 1019.5 |
| 20260502022134 | 53 | 250 | 0.0 | 1.0 | 0.00 | 0.00 | 0.00 | 39 | 1019.5 |
| 20260502021632 | 54 | 250 | 0.0 | 1.0 | 0.00 | 0.00 | 0.00 | 38 | 1019.4 |
| 20260502021130 | 54 | 250 | 0.0 | 1.0 | 0.00 | 0.00 | 0.00 | 38 | 1019.4 |
| 20260502020649 | 54 | 250 | 0.0 | 1.0 | 0.00 | 0.00 | 0.00 | 37 | 1019.3 |
| 20260502020126 | 55 | 249 | 0.0 | 1.0 | 0.00 | 0.00 | 0.00 | 39 | 1019.3 |
| 20260502015625 | 55 | 249 | 0.0 | 1.0 | 0.00 | 0.00 | 0.00 | 38 | 1019.3 |
| 20260502015123 | 55 | 249 | 0.0 | 1.0 | 0.00 | 0.00 | 0.00 | 39 | 1019.3 |
| 20260502014625 | 56 | 250 | 0.0 | 1.0 | 0.00 | 0.00 | 0.00 | 38 | 1019.1 |
| 20260502014123 | 56 | 255 | 0.0 | 1.0 | 0.00 | 0.00 | 0.00 | 38 | 1019.2 |
| 20260502013621 | 56 | 301 | 0.0 | 1.0 | 0.00 | 0.00 | 0.00 | 37 | 1019.2 |
| 20260502013138 | 57 | 303 | 0.0 | 1.0 | 0.00 | 0.00 | 0.00 | 37 | 1019.2 |
| 20260502012635 | 57 | 303 | 0.0 | 1.0 | 0.00 | 0.00 | 0.00 | 37 | 1019.1 |
| 20260502012132 | 58 | 303 | 0.0 | 1.0 | 0.00 | 0.00 | 0.00 | 36 | 1019.1 |
| 20260502011630 | 58 | 303 | 0.0 | 0.0 | 0.00 | 0.00 | 0.00 | 35 | 1019.2 |
| 20260502011128 | 59 | 305 | 0.0 | 2.0 | 0.00 | 0.00 | 0.00 | 34 | 1019.1 |
| 20260502010626 | 59 | 305 | 0.0 | 2.0 | 0.00 | 0.00 | 0.00 | 34 | 1019.1 |
| 20260502010125 | 59 | 257 | 0.0 | 1.0 | 0.00 | 0.00 | 0.00 | 34 | 1019.1 |
| 20260502005624 | 59 | 256 | 0.0 | 1.0 | 0.00 | 0.00 | 0.00 | 35 | 1019.1 |
| 20260502005142 | 59 | 258 | 0.0 | 1.0 | 0.00 | 0.00 | 0.00 | 35 | 1019.1 |
| 20260502004619 | 58 | 174 | 0.0 | 1.0 | 0.00 | 0.00 | 0.00 | 36 | 1019.0 |
| 20260502004117 | 58 | 182 | 0.0 | 1.0 | 0.00 | 0.00 | 0.00 | 37 | 1019.0 |
| 20260502003636 | 58 | 180 | 0.0 | 0.0 | 0.00 | 0.00 | 0.00 | 37 | 1019.0 |
| 20260502003134 | 58 | 241 | 0.0 | 1.0 | 0.00 | 0.00 | 0.00 | 38 | 1019.1 |
| 20260502002631 | 58 | 242 | 0.0 | 2.0 | 0.00 | 0.00 | 0.00 | 36 | 1019.1 |
| 20260502002133 | 58 | 160 | 0.0 | 2.0 | 0.00 | 0.00 | 0.00 | 36 | 1019.0 |
| 20260502001631 | 58 | 155 | 0.0 | 0.0 | 0.00 | 0.00 | 0.00 | 33 | 1019.0 |
| 20260502001149 | 58 | 155 | 0.0 | 1.0 | 0.00 | 0.00 | 0.00 | 32 | 1019.1 |
| 20260502000704 | 58 | 139 | 0.0 | 1.0 | 0.00 | 0.00 | 0.00 | 34 | 1019.1 |
| 20260502000117 | 58 | 236 | 0.0 | 1.0 | 0.00 | 0.00 | 0.00 | 34 | 1019.1 |
| 20260501235635 | 58 | 236 | 0.0 | 1.0 | 0.00 | 0.00 | 0.00 | 34 | 1019.1 |
| 20260501235152 | 58 | 217 | 0.0 | 3.0 | 0.00 | 0.00 | 0.00 | 35 | 1019.2 |
| 20260501234628 | 58 | 236 | 0.0 | 3.0 | 0.00 | 0.00 | 0.00 | 36 | 1019.2 |
| 20260501234127 | 58 | 243 | 0.0 | 2.0 | 0.00 | 0.00 | 0.00 | 36 | 1019.1 |
| 20260501233625 | 58 | 250 | 0.0 | 2.0 | 0.00 | 0.00 | 0.00 | 36 | 1019.2 |
| 20260501233123 | 58 | 195 | 0.0 | 2.0 | 0.00 | 0.00 | 0.00 | 35 | 1019.2 |
| 20260501232622 | 58 | 255 | 0.0 | 1.0 | 0.00 | 0.00 | 0.00 | 35 | 1019.1 |
| 20260501232140 | 58 | 253 | 0.0 | 2.0 | 0.00 | 0.00 | 0.00 | 36 | 1019.1 |
| 20260501231636 | 58 | 247 | 1.0 | 2.0 | 0.00 | 0.00 | 0.00 | 35 | 1019.1 |
| 20260501231134 | 59 | 73 | 0.0 | 1.0 | 0.00 | 0.00 | 0.00 | 34 | 1019.1 |
| 20260501230631 | 59 | 85 | 0.0 | 2.0 | 0.00 | 0.00 | 0.00 | 32 | 1019.2 |
| 20260501230129 | 59 | 98 | 1.0 | 3.0 | 0.00 | 0.00 | 0.00 | 32 | 1019.2 |
| 20260501225627 | 60 | 214 | 1.0 | 3.0 | 0.00 | 0.00 | 0.00 | 32 | 1019.4 |
| 20260501225145 | 59 | 74 | 0.0 | 2.0 | 0.00 | 0.00 | 0.00 | 28 | 1019.3 |
| 20260501224622 | 59 | 48 | 1.0 | 4.0 | 0.00 | 0.00 | 0.00 | 28 | 1019.3 |
| 20260501224121 | 59 | 328 | 1.0 | 4.0 | 0.00 | 0.00 | 0.00 | 27 | 1019.3 |
| 20260501223658 | 60 | 72 | 1.0 | 6.0 | 0.00 | 0.00 | 0.00 | 28 | 1019.4 |
| 20260501223119 | 60 | 36 | 3.0 | 6.0 | 0.00 | 0.00 | 0.00 | 28 | 1019.4 |
| 20260501222637 | 60 | 41 | 3.0 | 6.0 | 0.00 | 0.00 | 0.00 | 28 | 1019.5 |
| 20260501222135 | 60 | 37 | 1.0 | 3.0 | 0.00 | 0.00 | 0.00 | 28 | 1019.5 |
| 20260501221633 | 60 | 37 | 1.0 | 2.0 | 0.00 | 0.00 | 0.00 | 27 | 1019.5 |
| 20260501221130 | 60 | 59 | 1.0 | 2.0 | 0.00 | 0.00 | 0.00 | 27 | 1019.6 |
| 20260501220648 | 61 | 75 | 0.0 | 2.0 | 0.00 | 0.00 | 0.00 | 27 | 1019.6 |
| 20260501220145 | 61 | 136 | 0.0 | 2.0 | 0.00 | 0.00 | 0.00 | 28 | 1019.7 |
| 20260501215623 | 61 | 228 | 0.0 | 1.0 | 0.00 | 0.00 | 0.00 | 28 | 1019.7 |
| 20260501215121 | 60 | 232 | 0.0 | 2.0 | 0.00 | 0.00 | 0.00 | 28 | 1019.7 |
| 20260501214617 | 60 | 68 | 0.0 | 2.0 | 0.00 | 0.00 | 0.00 | 28 | 1019.8 |
| 20260501214137 | 60 | 79 | 0.0 | 3.0 | 0.00 | 0.00 | 0.00 | 28 | 1019.9 |
| 20260501213635 | 60 | 63 | 2.0 | 3.0 | 0.00 | 0.00 | 0.00 | 28 | 1019.9 |
| 20260501213132 | 59 | 45 | 1.0 | 4.0 | 0.00 | 0.00 | 0.00 | 28 | 1019.9 |
| 20260501212630 | 59 | 72 | 0.0 | 5.0 | 0.00 | 0.00 | 0.00 | 29 | 1020.0 |
| 20260501212128 | 59 | 45 | 2.0 | 5.0 | 0.00 | 0.00 | 0.00 | 28 | 1020.1 |
| 20260501211626 | 59 | 68 | 1.0 | 4.0 | 0.00 | 0.00 | 0.00 | 29 | 1020.1 |
| 20260501211126 | 59 | 13 | 2.0 | 4.0 | 0.00 | 0.00 | 0.00 | 28 | 1020.1 |
| 20260501210628 | 59 | 1 | 1.0 | 5.0 | 0.00 | 0.00 | 0.00 | 28 | 1020.1 |
| 20260501210126 | 59 | 31 | 3.0 | 5.0 | 0.00 | 0.00 | 0.00 | 28 | 1020.2 |
| 20260501205624 | 60 | 58 | 1.0 | 4.0 | 0.00 | 0.00 | 0.00 | 28 | 1020.2 |
| 20260501205120 | 60 | 72 | 2.0 | 4.0 | 0.00 | 0.00 | 0.00 | 28 | 1020.1 |
| 20260501204638 | 60 | 41 | 2.0 | 3.0 | 0.00 | 0.00 | 0.00 | 27 | 1020.0 |
| 20260501204135 | 61 | 6 | 1.0 | 6.0 | 0.00 | 0.00 | 0.00 | 27 | 1020.2 |
| 20260501203633 | 62 | 53 | 2.0 | 6.0 | 0.00 | 0.00 | 0.00 | 27 | 1020.1 |
| 20260501203131 | 63 | 23 | 1.0 | 4.0 | 0.00 | 0.00 | 0.00 | 26 | 1020.1 |
| 20260501202629 | 62 | 72 | 1.0 | 5.0 | 0.00 | 0.00 | 0.00 | 28 | 1020.1 |
| 20260501202147 | 62 | 68 | 2.0 | 5.0 | 0.00 | 0.00 | 0.00 | 26 | 1020.0 |
| 20260501201624 | 63 | 3 | 2.0 | 5.0 | 0.00 | 0.00 | 0.00 | 26 | 1020.0 |
| 20260501201121 | 64 | 46 | 2.0 | 3.0 | 0.00 | 0.00 | 0.00 | 26 | 1020.0 |
| 20260501200638 | 62 | 132 | 1.0 | 2.0 | 0.00 | 0.00 | 0.00 | 27 | 1020.0 |
| 20260501200136 | 62 | 91 | 1.0 | 5.0 | 0.00 | 0.00 | 0.00 | 27 | 1020.1 |
| 20260501195636 | 62 | 63 | 1.0 | 5.0 | 0.00 | 0.00 | 0.00 | 27 | 1020.1 |
| 20260501195133 | 63 | 71 | 2.0 | 4.0 | 0.00 | 0.00 | 0.00 | 26 | 1020.2 |
| 20260501194636 | 64 | 49 | 1.0 | 6.0 | 0.00 | 0.00 | 0.00 | 26 | 1020.1 |
| 20260501194132 | 62 | 16 | 2.0 | 7.0 | 0.00 | 0.00 | 0.00 | 27 | 1020.2 |
| 20260501193631 | 63 | 53 | 2.0 | 7.0 | 0.00 | 0.00 | 0.00 | 28 | 1020.2 |
| 20260501193128 | 62 | 68 | 3.0 | 7.0 | 0.00 | 0.00 | 0.00 | 27 | 1020.2 |
| 20260501192626 | 62 | 40 | 3.0 | 7.0 | 0.00 | 0.00 | 0.00 | 28 | 1020.2 |
| 20260501192124 | 62 | 56 | 3.0 | 8.0 | 0.00 | 0.00 | 0.00 | 27 | 1020.3 |
| 20260501191621 | 61 | 63 | 4.0 | 8.0 | 0.00 | 0.00 | 0.00 | 27 | 1020.3 |
| 20260501191139 | 62 | 49 | 3.0 | 6.0 | 0.00 | 0.00 | 0.00 | 28 | 1020.4 |
| 20260501190627 | 62 | 78 | 3.0 | 6.0 | 0.00 | 0.00 | 0.00 | 27 | 1020.4 |
| 20260501190126 | 64 | 58 | 3.0 | 6.0 | 0.00 | 0.00 | 0.00 | 26 | 1020.3 |
| 20260501185625 | 63 | 39 | 2.0 | 6.0 | 0.00 | 0.00 | 0.00 | 26 | 1020.5 |
| 20260501185143 | 63 | 72 | 4.0 | 6.0 | 0.00 | 0.00 | 0.00 | 27 | 1020.5 |
| 20260501184640 | 63 | 96 | 1.0 | 6.0 | 0.00 | 0.00 | 0.00 | 26 | 1020.5 |
| 20260501184138 | 63 | 85 | 2.0 | 6.0 | 0.00 | 0.00 | 0.00 | 25 | 1020.6 |
| 20260501183636 | 64 | 38 | 2.0 | 5.0 | 0.00 | 0.00 | 0.00 | 24 | 1020.6 |
| 20260501183134 | 65 | 32 | 2.0 | 4.0 | 0.00 | 0.00 | 0.00 | 25 | 1020.6 |
| 20260501182632 | 66 | 43 | 1.0 | 4.0 | 0.00 | 0.00 | 0.00 | 25 | 1020.7 |
| 20260501182133 | 66 | 41 | 1.0 | 3.0 | 0.00 | 0.00 | 0.00 | 26 | 1020.7 |
| 20260501181630 | 64 | 359 | 0.0 | 3.0 | 0.00 | 0.00 | 0.00 | 27 | 1020.7 |
| 20260501181127 | 63 | 101 | 1.0 | 4.0 | 0.00 | 0.00 | 0.00 | 25 | 1020.7 |
| 20260501180625 | 62 | 131 | 1.0 | 4.0 | 0.00 | 0.00 | 0.00 | 26 | 1020.8 |
| 20260501180123 | 62 | 91 | 2.0 | 4.0 | 0.00 | 0.00 | 0.00 | 26 | 1020.8 |
| 20260501175621 | 62 | 84 | 2.0 | 4.0 | 0.00 | 0.00 | 0.00 | 26 | 1020.8 |
| 20260501175139 | 62 | 78 | 1.0 | 2.0 | 0.00 | 0.00 | 0.00 | 27 | 1020.8 |
| 20260501174657 | 60 | 3 | 0.0 | 3.0 | 0.00 | 0.00 | 0.00 | 28 | 1020.9 |
| 20260501174135 | 61 | 41 | 2.0 | 3.0 | 0.00 | 0.00 | 0.00 | 28 | 1020.9 |
| 20260501173653 | 61 | 165 | 1.0 | 3.0 | 0.00 | 0.00 | 0.00 | 27 | 1020.8 |
| 20260501173129 | 62 | 236 | 0.0 | 2.0 | 0.00 | 0.00 | 0.00 | 27 | 1020.9 |
| 20260501172627 | 63 | 245 | 0.0 | 3.0 | 0.00 | 0.00 | 0.00 | 26 | 1020.9 |
| 20260501172125 | 64 | 53 | 0.0 | 5.0 | 0.00 | 0.00 | 0.00 | 26 | 1020.9 |
| 20260501171622 | 63 | 39 | 1.0 | 5.0 | 0.00 | 0.00 | 0.00 | 27 | 1020.8 |
| 20260501171200 | 62 | 56 | 1.0 | 3.0 | 0.00 | 0.00 | 0.00 | 30 | 1020.8 |
| 20260501170657 | 61 | 116 | 1.0 | 2.0 | 0.00 | 0.00 | 0.00 | 30 | 1020.9 |
| 20260501170134 | 60 | 13 | 1.0 | 3.0 | 0.00 | 0.00 | 0.00 | 31 | 1020.8 |
| 20260501165631 | 59 | 55 | 0.0 | 3.0 | 0.00 | 0.00 | 0.00 | 30 | 1020.8 |
| 20260501165129 | 61 | 69 | 2.0 | 2.0 | 0.00 | 0.00 | 0.00 | 29 | 1020.8 |
| 20260501164648 | 61 | 208 | 1.0 | 3.0 | 0.00 | 0.00 | 0.00 | 28 | 1020.8 |